SCD 1 1 22490U 93009B 23340.59133888 .00000549 00000-0 10163-3 0 9997 2 22490 24.9676 146.1335 0042841 89.4423 331.4190 14.45087737627322 TECHSAT 1B 1 25397U 98043D 23340.44880283 .00000166 00000-0 92236-4 0 9998 2 25397 98.8948 299.5950 0001693 38.4142 321.7156 14.23953337319844 SCD 2 1 25504U 98060A 23340.59867781 .00000518 00000-0 95779-4 0 9997 2 25504 24.9969 4.2343 0017425 89.5049 45.4288 14.44582389326580 LANDSAT 7 1 25682U 99020A 23340.88853887 .00000534 00000-0 11944-3 0 9994 2 25682 97.9104 11.6210 0001158 103.1544 334.1169 14.60363856310923 TUBSAT 1 25757U 99029B 23340.84862306 .00000202 00000-0 61928-4 0 9998 2 25757 98.5591 295.8238 0013092 281.3035 78.6688 14.51771745299240 QUIKSCAT 1 25789U 99034A 23340.56771345 .00000579 00000-0 15258-3 0 9991 2 25789 98.3970 213.5236 0096829 230.4140 128.8474 14.50175611278540 TERRA 1 25994U 99068A 23341.18316802 .00000588 00000-0 13349-3 0 9997 2 25994 98.0758 45.1303 0000917 206.2458 210.1201 14.59476833275010 MAROC TUBSAT 1 27004U 01056D 23340.39152741 -.00000005 00000-0 46203-4 0 9994 2 27004 99.7045 128.0022 0019702 353.8940 60.5247 13.70189894 99670 AQUA 1 27424U 02022A 23341.11033744 .00001246 00000-0 27744-3 0 9991 2 27424 98.3079 285.1371 0001586 51.4558 5.0159 14.58640521148562 IRS P6 1 28051U 03046A 23341.16140434 .00000309 00000-0 11870-3 0 9997 2 28051 98.3382 40.4442 0058942 221.8057 191.4401 14.35908626 48109 TANSUO 1 1 28220U 04012A 23340.93210046 .00006631 00000-0 43286-3 0 9990 2 28220 97.9830 355.9176 0009246 334.0906 25.9856 15.08175228 70836 ROCSAT 2 1 28254U 04018A 23340.99364140 .00000216 00000-0 17191-3 0 9993 2 28254 98.7106 327.6179 0001918 70.5202 355.3538 14.00921137999517 AURA 1 28376U 04026A 23340.87951758 .00001256 00000-0 28336-3 0 9999 2 28376 98.2301 282.4028 0001066 60.6794 299.4512 14.58001052 31509 CARTOSAT-1 1 28649U 05017A 23340.88414650 .00001823 00000-0 21443-3 0 9991 2 28649 97.6443 27.0775 0000698 151.6751 208.4503 14.86016824 6447 SINAH 1 1 28893U 05043D 23340.92577460 .00000559 00000-0 11989-3 0 9994 2 28893 98.1730 101.5266 0013772 290.2202 69.7518 14.62388929965488 EROS B 1 29079U 06014A 23341.23318878 .00015905 00000-0 69080-3 0 9997 2 29079 97.3326 96.4367 0007478 151.2354 208.9296 15.22362511978256 RESURS DK-1 1 29228U 06021A 23340.94536809 .00002054 00000-0 14779-3 0 9990 2 29228 69.9339 196.8195 0007008 295.0474 64.9961 15.05912436963211 KOMPSAT 2 1 29268U 06031A 23341.17989954 .00000398 00000-0 85742-4 0 9992 2 29268 97.8812 193.1234 0015987 115.9225 357.4956 14.63321084926516 LAPAN-TUBSAT 1 29709U 07001A 23341.13586837 .00000847 00000-0 10959-3 0 9995 2 29709 98.0442 309.5642 0011508 313.5339 46.4918 14.83502072914184 CARTOSAT 2AT 1 29710U 07001B 23340.91583344 .00112124 64144-5 61084-3 0 9993 2 29710 97.8959 138.2055 0055900 284.5029 75.0038 15.77645341919275 HAIYANG 1B 1 31113U 07010A 23340.49399608 .00000161 00000-0 77651-4 0 9995 2 31113 98.2949 346.4072 0014744 63.2234 297.0457 14.30509286868541 SKYMED 1 1 31598U 07023A 23341.12343691 .00000705 00000-0 95094-4 0 9993 2 31598 97.8853 162.1077 0001283 79.2355 280.9003 14.82161470892596 TERRA SAR X 1 31698U 07026A 23339.53295476 .00003907 00000-0 18917-3 0 9991 2 31698 97.4460 344.4762 0001983 97.2269 262.9191 15.19146903912848 WORLDVIEW 1 1 32060U 07041A 23340.31249560 .00009359 00000-0 38139-3 0 9998 2 32060 97.3844 97.5494 0001682 223.5973 136.5132 15.24677544902180 YAOGAN 3 1 32289U 07055A 23341.16398245 .00002076 00000-0 25656-3 0 9994 2 32289 97.9069 3.3207 0001326 107.8302 252.3056 14.83871456868691 SKYMED 2 1 32376U 07059A 23341.15720338 .00000667 00000-0 90302-4 0 9991 2 32376 97.8853 162.1418 0001495 83.9899 276.1484 14.82157757865357 RADARSAT 2 1 32382U 07061A 23340.91237936 .00000109 00000-0 59293-4 0 9996 2 32382 98.5786 345.0714 0001131 89.1971 270.9341 14.29984497834006 CARTOSAT 2A 1 32783U 08021A 23341.18617889 .00001034 00000-0 14779-3 0 9994 2 32783 97.8951 38.6368 0011647 222.6800 137.3507 14.78705458842488 JASON 2 1 33105U 08032A 23340.96332295 -.00000034 00000-0 11325-3 0 9999 2 33105 66.0384 192.1589 0007606 268.6603 190.4500 12.87663931724835 RAPIDEYE 2 1 33312U 08040A 23340.73195213 .00001802 00000-0 15339-3 0 9992 2 33312 97.5188 27.5522 0012014 91.1609 269.0991 14.98961686827314 RAPIDEYE 5 1 33313U 08040B 23341.12540092 .00001906 00000-0 17013-3 0 9992 2 33313 97.5144 22.6362 0013222 338.1010 21.9645 14.97017888827201 RAPIDEYE 1 1 33314U 08040C 23341.10315924 .00001797 00000-0 15753-3 0 9992 2 33314 97.5410 28.7396 0027018 93.2906 267.1408 14.97594418827304 RAPIDEYE 3 1 33315U 08040D 23341.11603424 .00001249 00000-0 10399-3 0 9992 2 33315 97.5244 29.8443 0003810 309.4601 50.6286 15.00386662827611 RAPIDEYE 4 1 33316U 08040E 23341.13584434 .00001952 00000-0 16891-3 0 9998 2 33316 97.5249 26.6574 0006317 2.8675 357.2583 14.98258987827358 HJ-1A 1 33320U 08041A 23341.20047457 .00001331 00000-0 18638-3 0 9993 2 33320 97.6370 352.8544 0019068 282.2047 77.7030 14.78991313821826 HJ-1B 1 33321U 08041B 23341.19442781 .00001176 00000-0 16199-3 0 9998 2 33321 97.6359 357.3284 0038016 328.4700 31.4234 14.79537304821839 GEOEYE 1 1 33331U 08042A 23341.22355643 .00000647 00000-0 13087-3 0 9999 2 33331 98.0700 52.2204 0007955 50.6668 309.5239 14.64498357815074 THEOS 1 33396U 08049A 23341.17428675 .00000079 00000-0 57284-4 0 9994 2 33396 98.6851 45.9377 0001146 102.2569 257.8736 14.20070738786983 SKYMED 3 1 33412U 08054A 23341.12014191 .00003147 00000-0 28861-3 0 9995 2 33412 97.8808 171.5000 0017342 134.1775 226.0874 14.95520651818413 YAOGAN 4 1 33446U 08061A 23340.98190859 .00001344 00000-0 18857-3 0 9990 2 33446 97.8656 271.8327 0015240 187.4825 172.6161 14.78996677808992 GOSAT (IBUKI) 1 33492U 09002A 23340.28022762 .00001778 00000-0 32164-3 0 9995 2 33492 98.0249 90.5993 0001379 90.1229 270.0134 14.67570269795952 YAOGAN 6 1 34839U 09021A 23340.44884655 .00012825 00000-0 31676-3 0 9999 2 34839 97.1486 305.9481 0021291 159.3992 200.8118 15.40387929813546 DEIMOS 1 1 35681U 09041A 23341.08144034 .00000760 00000-0 12584-3 0 9990 2 35681 97.6754 168.4423 0000572 6.3701 353.7515 14.72862257770885 DUBAISAT 1 1 35682U 09041B 23340.97619030 .00001452 00000-0 24578-3 0 9996 2 35682 97.8787 118.2090 0011866 147.1224 213.0724 14.70730563769238 OCEANSAT 2 1 35931U 09051A 23341.17323376 .00000319 00000-0 24498-3 0 9994 2 35931 98.2947 43.3522 0015210 325.2503 34.7668 13.99412631750229 WORLDVIEW 2 1 35946U 09055A 23340.88426935 .00000230 00000-0 91163-4 0 9992 2 35946 98.4354 52.5314 0002416 115.2474 244.8963 14.37554933743014 SMOS 1 36036U 09059A 23341.14052649 .00000423 00000-0 14886-3 0 9994 2 36036 98.4391 165.8896 0001203 85.7845 274.3481 14.39743089740772 YAOGAN 7 1 36110U 09069A 23341.21213771 .00000604 00000-0 95289-4 0 9999 2 36110 98.1303 211.1510 0026706 125.1952 235.1764 14.75834560753426 TANDEM X 1 36605U 10030A 23339.46708702 .00000436 00000-0 23976-4 0 9992 2 36605 97.4451 344.4093 0001766 84.7542 275.3894 15.19146581746252 CARTOSAT 2B 1 36795U 10035A 23341.15535623 .00001000 00000-0 14314-3 0 9999 2 36795 97.8894 38.3829 0012025 306.6025 53.4080 14.78722832723525 YAOGAN 10 1 36834U 10038A 23341.16497951 .00000868 00000-0 11529-3 0 9994 2 36834 97.9595 354.3593 0001309 97.5411 327.3069 14.82301596720404 SKYMED 4 1 37216U 10060A 23341.10233549 .00000687 00000-0 92790-4 0 9998 2 37216 97.8852 162.0870 0001338 88.3410 271.7957 14.82157518707894 HAIYANG 2A 1 37781U 11043A 23341.02235104 .00000017 00000-0 60221-4 0 9998 2 37781 99.3242 342.7051 0000486 139.1453 220.9736 13.78760262619718 RASAT 1 37791U 11044D 23341.17576373 .00000761 00000-0 14764-3 0 9998 2 37791 98.0859 70.7258 0020518 231.7100 189.5551 14.65895680657865 SRMSAT 1 37841U 11058D 23341.07626971 .00000473 00000-0 11446-3 0 9992 2 37841 19.9713 244.6524 0011991 131.8707 356.5464 14.10997206627478 YAOGAN 13 1 37941U 11072A 23341.11920981 .00014784 00000-0 45458-3 0 9992 2 37941 97.7012 309.9972 0002179 51.1109 309.0327 15.33790465666798 PLEIADES 1 1 38012U 11076F 23340.89108245 -.00000030 00000-0 33186-5 0 9998 2 38012 98.1847 53.2854 0001432 102.3399 347.0961 14.58535075637400 ZY 1 1 38038U 11079A 23341.15336524 .00000546 00000-0 20107-3 0 9990 2 38038 98.5242 46.8042 0006817 173.5949 238.9055 14.36489986626653 ZY 3 1 38046U 12001A 23341.16700824 .00008879 00000-0 33885-3 0 9998 2 38046 97.2762 42.8210 0005415 74.8188 285.3650 15.26873115661443 RISAT 1 1 38248U 12017A 23340.99558837 .00007749 00000-0 36934-3 0 9997 2 38248 97.5362 353.3132 0003161 166.8871 193.2446 15.19384985640223 KOMPSAT 3 1 38338U 12025B 23340.87111388 .00000777 00000-0 16327-3 0 9997 2 38338 98.2401 282.2781 0011418 119.9893 240.2443 14.62333169616400 KANOPUS-V 1 1 38707U 12039A 23340.32991193 .00013433 00000-0 38103-3 0 9991 2 38707 97.4855 268.6594 0003107 76.4041 283.7548 15.36350401631340 EXACTVIEW-1 1 38709U 12039C 23341.14297074 .00000164 00000-0 91033-4 0 9990 2 38709 98.9617 64.3551 0010117 314.8647 45.1709 14.24335897591272 SPOT 6 1 38755U 12047A 23341.16378839 .00000475 00000-0 11175-3 0 9994 2 38755 98.1705 45.8246 0001074 103.1207 257.0113 14.58597390598535 PLEIADES 1B 1 39019U 12068A 23341.18235685 .00000475 00000-0 11192-3 0 9993 2 39019 98.1798 53.4440 0001334 94.7151 265.4201 14.58558319586305 GOKTURK 2 1 39030U 12073A 23341.13116889 .00000678 00000-0 11167-3 0 9998 2 39030 97.7760 205.2185 0002070 86.8880 273.2565 14.73513302588508 LANDSAT 8 1 39084U 13008A 23340.83221500 .00000534 00000-0 12847-3 0 9996 2 39084 98.2090 48.4705 0001268 94.9416 265.1928 14.57136072563432 SARAL 1 39086U 13009A 23340.93219756 .00000157 00000-0 74358-4 0 9997 2 39086 98.5455 163.7522 0002759 119.1772 240.9688 14.32308657563416 GAOFEN 1 1 39150U 13018A 23340.91888210 .00000922 00000-0 13959-3 0 9993 2 39150 98.0131 50.1137 0020016 0.9158 359.2085 14.76460797572008 VNREDSAT 1 1 39160U 13021B 23341.15494795 .00000826 00000-0 16988-3 0 9994 2 39160 98.0231 48.5536 0001343 104.9953 255.1398 14.63075543565228 KOMPSAT 5 1 39227U 13042A 23341.09625005 .00001534 00000-0 11399-3 0 9992 2 39227 97.6160 164.7052 0002461 71.2955 288.8538 15.04483200565129 SKYSAT 1 1 39418U 13066C 23341.16817285 .00002724 00000-0 20384-3 0 9997 2 39418 97.5175 42.2012 0024272 239.3098 120.5736 15.03345941549336 DUBAISAT 2 1 39419U 13066D 23341.15086417 .00002570 00000-0 22007-3 0 9995 2 39419 97.4076 350.6339 0011494 268.3981 91.5926 14.98352848547602 GPM 1 39574U 14009C 23340.89813218 .00010817 00000-0 23578-3 0 9999 2 39574 64.9881 159.8411 0012474 282.8772 77.0975 15.44595796555206 SENTINEL 1A 1 39634U 14016A 23341.12204298 .00000250 00000-0 62732-4 0 9999 2 39634 98.1823 345.9993 0001267 90.7207 269.4137 14.59201147515435 KAZEOSAT 1 1 39731U 14024A 23341.17769633 -.00000102 00000-0 -17939-4 0 9997 2 39731 98.4160 55.6143 0001239 76.1815 283.9512 14.41983463505586 ALOS 2 1 39766U 14029A 23340.88314815 .00002321 00000-0 31757-3 0 9991 2 39766 97.9231 75.3045 0001468 101.2893 258.8484 14.79474376515069 KAZEOSAT 2 1 40010U 14033A 23341.12576936 .00000724 00000-0 97090-4 0 9990 2 40010 97.6452 210.0206 0013500 117.7174 242.5411 14.82125531512085 HODOYOSHI 4 1 40011U 14033B 23341.16356201 .00001526 00000-0 19116-3 0 9999 2 40011 97.6006 195.2488 0027027 113.3567 247.0495 14.83357687511748 DEIMOS 2 1 40013U 14033D 23341.14912609 .00001786 00000-0 20226-3 0 9991 2 40013 97.7024 228.5121 0002106 106.5923 253.5525 14.87613097513052 HODOYOSHI 3 1 40015U 14033F 23340.88977439 .00001219 00000-0 16494-3 0 9998 2 40015 97.5958 171.8759 0036534 145.9471 214.4097 14.80244226510775 SPOT 7 1 40053U 14034A 23341.16353702 .00000637 00000-0 14540-3 0 9997 2 40053 98.1851 46.0218 0001060 105.2865 254.8451 14.58981305502461 SKYSAT 2 1 40072U 14037D 23340.41310335 .00001539 00000-0 19549-3 0 9999 2 40072 98.3422 238.6760 0007033 38.4561 321.7152 14.83215404508797 WORLDVIEW 3 1 40115U 14048A 23341.17118794 .00001363 00000-0 16456-3 0 9997 2 40115 97.8296 52.3326 0001810 84.1128 276.0293 14.85382177504957 YAOGAN 21 1 40143U 14053A 23341.15311487 .00008160 00000-0 34100-3 0 9994 2 40143 97.2831 40.2491 0010558 136.2538 223.9538 15.23817890514423 YAOGAN 22 1 40275U 14063A 23340.82940466 -.00000023 00000-0 59763-4 0 9993 2 40275 100.6365 106.7291 0006855 110.9128 249.2717 13.15470112438409 ASNARO 1 40298U 14070A 23341.20939225 .00009174 00000-0 43786-3 0 9992 2 40298 97.4293 61.0955 0006735 191.0519 169.0569 15.19263582503862 HODOYOSHI 1 1 40299U 14070B 23341.13265522 .00013095 00000-0 33986-3 0 9995 2 40299 97.1721 39.6441 0009863 25.6834 334.4900 15.39056590505358 CHUBUSAT 1 1 40300U 14070C 23341.11736630 .00015761 00000-0 40696-3 0 9997 2 40300 97.1152 21.8021 0014819 41.1748 319.0613 15.39106443504891 QSAT-EOS 1 40301U 14070D 23337.65865496 .14329432 24353-5 12164-3 0 9994 2 40301 97.1123 51.9812 0010388 267.5322 92.4795 16.51838351506486 TSUBAME 1 40302U 14070E 23341.17883472 .00016877 00000-0 45662-3 0 9999 2 40302 97.1200 347.3389 0027304 99.2981 261.1354 15.37377549503473 YAOGAN 23 1 40305U 14071A 23341.16949817 .00016629 00000-0 46150-3 0 9996 2 40305 97.6739 310.6768 0003237 78.7885 281.3723 15.36986355502637 CBERS-4 1 40336U 14079A 23341.18053780 .00000177 00000-0 76639-4 0 9992 2 40336 98.4262 49.3162 0001361 127.6832 232.4477 14.35452546471554 RESURS P2 1 40360U 14087A 23341.18417038 .00014665 00000-0 26875-3 0 9991 2 40360 97.1702 62.9553 0005405 302.9413 57.1319 15.49388275501090 YAOGAN 26 1 40362U 14088A 23341.14324489 .00009600 00000-0 40513-3 0 9995 2 40362 97.0747 8.0013 0002092 5.8170 354.3092 15.23475253497909 SMAP 1 40376U 15003A 23340.93380966 .00000718 00000-0 14816-3 0 9994 2 40376 98.1289 345.0624 0001460 93.9422 266.1947 14.63352970472595 KOMPSAT 3A 1 40536U 15014A 23341.13049976 .00007275 00000-0 36203-3 0 9999 2 40536 97.5915 284.8796 0001642 215.5440 144.5684 15.17910098480380 SENTINEL 2A 1 40697U 15028A 23341.16548459 .00000184 00000-0 87007-4 0 9996 2 40697 98.5710 53.1779 0001156 88.2012 271.9303 14.30812195441743 CARBONITE 1 1 40718U 15032D 23341.17857661 .00001794 00000-0 25839-3 0 9996 2 40718 97.6703 185.6539 0017336 73.0093 287.3017 14.77396302452756 YAOGAN 27 1 40878U 15040A 23341.11490550 -.00000033 00000-0 23431-4 0 9999 2 40878 100.0870 353.9491 0008384 180.3076 179.8034 13.16004619397751 LAPAN A2 1 40931U 15052B 23337.40314487 .00001702 00000-0 14444-3 0 9999 2 40931 6.0012 318.3939 0012912 174.6405 185.3862 14.77506852442307 YAOGAN 28 1 41026U 15064A 23341.17540365 .00007692 00000-0 32403-3 0 9992 2 41026 97.1848 134.3182 0004341 126.4688 233.6951 15.23600402450091 YAOGAN 29 1 41038U 15069A 23341.15586254 .00000595 00000-0 83008-4 0 9998 2 41038 98.0617 349.4182 0002942 123.8546 236.2946 14.81385764433881 KENT RIDGE 1 1 41167U 15077B 23341.07236814 .00003692 00000-0 16366-3 0 9998 2 41167 14.9804 242.3833 0010391 265.6528 94.2606 15.13315755440708 TELEOS 1 1 41169U 15077D 23340.88879338 .00010827 00000-0 40813-3 0 9994 2 41169 14.9791 178.7180 0008039 19.8857 340.1778 15.23461033441269 JASON 3 1 41240U 16002A 23340.95094619 -.00000032 00000-0 12689-3 0 9990 2 41240 66.0417 252.6869 0007631 271.1019 88.9122 12.80929367368759 SENTINEL 3A 1 41335U 16011A 23341.16697243 .00000158 00000-0 83454-4 0 9998 2 41335 98.6337 45.7107 0000855 87.5422 272.5856 14.26734771406449 SENTINEL 1B 1 41456U 16025A 23341.16397949 .00002633 00000-0 31891-3 0 9994 2 41456 98.1777 351.0282 0039617 291.7736 67.9263 14.84007682405937 ZY 3 2 1 41556U 16033A 23341.16939046 .00007665 00000-0 34426-3 0 9991 2 41556 97.4785 53.1913 0006655 135.6273 224.5497 15.21422672417652 CARTOSAT 2C 1 41599U 16040A 23340.91167150 .00005705 00000-0 27303-3 0 9996 2 41599 97.4152 38.2869 0013568 106.0400 254.2330 15.19278687413537 SKYSAT C1 1 41601U 16040C 23340.18916497 .00010633 00000-0 37304-3 0 9993 2 41601 97.0922 44.7768 0003421 241.1082 118.9816 15.29593334416488 LAPAN A3 1 41603U 16040E 23341.12043336 .00002578 00000-0 11022-3 0 9991 2 41603 97.1547 358.7006 0014135 68.6824 291.5921 15.23611659413811 BIROS 1 41604U 16040F 23340.06981261 .00010194 00000-0 32227-3 0 9995 2 41604 97.1463 9.6408 0010721 34.2222 325.9710 15.32923569414393 3CAT-2 1 41732U 16051B 23340.34621168 .00669822 21159-3 11722-2 0 9992 2 41732 97.3794 281.1460 0011048 117.8040 242.4360 16.02033175408444 SKYSAT C4 1 41771U 16058B 23340.12567995 .00011666 00000-0 35520-3 0 9994 2 41771 97.0428 32.0031 0003200 20.8279 339.3094 15.34134113403468 SKYSAT C5 1 41772U 16058C 23340.15219806 .00012247 00000-0 34566-3 0 9998 2 41772 97.1878 34.8369 0013531 139.9002 220.3244 15.36429525401872 SKYSAT C2 1 41773U 16058D 23340.14357338 .00009348 00000-0 33081-3 0 9990 2 41773 97.0448 31.8476 0002639 355.5850 4.5367 15.29342743403446 SKYSAT C3 1 41774U 16058E 23340.85681689 .00016944 00000-0 39672-3 0 9990 2 41774 97.0441 37.1194 0006467 95.4392 264.7594 15.42156709403868 ALSAT 1B 1 41785U 16059C 23341.12309264 .00000488 00000-0 87910-4 0 9995 2 41785 97.8416 12.0371 0008544 315.1147 44.9369 14.70664477384825 PATHFINDER 1 1 41787U 16059E 23341.08868946 .00000851 00000-0 16672-3 0 9999 2 41787 97.8499 7.1238 0028410 263.5186 96.2783 14.64978357384422 GOKTURK-1A 1 41875U 16073A 23341.13447440 .00000602 00000-0 12717-3 0 9991 2 41875 98.1182 232.9931 0001319 83.2312 276.9040 14.62755113373880 RESOURCESAT 2A 1 41877U 16074A 23341.16559516 .00000182 00000-0 10271-3 0 9991 2 41877 98.6681 53.3461 0001113 153.7600 206.3634 14.21648656363163 CARTOSAT 2D 1 41948U 17008A 23340.87818506 .00008311 00000-0 39858-3 0 9996 2 41948 97.4557 38.0544 0004109 246.7687 113.3114 15.19141657377396 SENTINEL 2B 1 42063U 17013A 23341.13054945 .00000176 00000-0 83760-4 0 9993 2 42063 98.5701 53.1547 0001066 92.2287 267.9017 14.30819926352651 ZHUHAI-1 02 1 42759U 17034B 23341.10319958 .00009743 00000-0 43382-3 0 9997 2 42759 43.0135 231.7804 0010655 156.6760 203.4575 15.21549796357930 NUSAT-3 1 42760U 17034C 23341.10872051 .00010501 00000-0 44142-3 0 9996 2 42760 43.0096 221.2403 0013967 177.1787 182.9144 15.23409651358079 ZHUHAI-1 01 1 42761U 17034D 23341.11699111 .00009092 00000-0 40488-3 0 9994 2 42761 43.0136 230.1923 0011207 158.6368 201.4951 15.21604527357940 CARTOSAT 2E 1 42767U 17036C 23341.15757794 .00005212 00000-0 25050-3 0 9996 2 42767 97.4681 38.1207 0006282 314.2868 45.7850 15.19241523358002